Torna al catalogo

STARLINK-33795

AttivoComunicazioniVLEO
NORAD 63457·PAYLOAD·🇺🇸 United States

Lanciato Apr 4, 2025 da Vandenberg Space Force Base

Loading…

Prossimi Passaggi (prossime 24 ore)

TLE

AggiornatoSource: CelesTrak SupGP

Epoca: Sep 14, 2026, 21:08 UTC

1 63457C 25069AA  26257.88104167 -.00013946  00000+0 -41212-3 0  2578
2 63457  53.1590 336.1814 0001293  81.2849  20.6277 15.34391996    18

Traccia STARLINK-33795 in tempo reale con AllMySat

Download on the App Store